Time,TemperatureF,DewpointF,PressureIn,WindDirection,WindDirectionDegrees,WindSpeedMPH,WindSpeedGustMPH,Humidity,HourlyPrecipIn,Conditions,Clouds,dailyrainin,SoftwareType,DateUTC
2013-04-25 00:04:00,44.4,33.4,30.00,SW,225,24.0,25.0,65,0.00,,,0.00,meteohub,2013-04-25 05:04:00,
2013-04-25 00:09:00,43.7,34.2,30.00,WSW,246,13.0,33.0,69,0.00,,,0.00,meteohub,2013-04-25 05:09:00,
2013-04-25 00:14:00,44.1,33.4,29.99,SW,215,14.0,33.0,66,0.00,,,0.00,meteohub,2013-04-25 05:14:00,
2013-04-25 00:20:00,44.4,33.4,29.99,SW,232,16.0,33.0,65,0.00,,,0.00,meteohub,2013-04-25 05:20:00,
2013-04-25 00:25:00,44.4,33.1,29.98,SW,214,19.0,23.0,64,0.00,,,0.00,meteohub,2013-04-25 05:25:00,
2013-04-25 00:30:00,44.4,33.1,29.99,SW,215,9.0,23.0,64,0.00,,,0.00,meteohub,2013-04-25 05:30:00,
2013-04-25 00:35:00,44.2,32.4,29.98,SW,220,13.0,23.0,63,0.00,,,0.00,meteohub,2013-04-25 05:35:00,
2013-04-25 00:40:00,44.6,32.7,29.98,SSW,198,13.0,22.0,63,0.00,,,0.00,meteohub,2013-04-25 05:40:00,
2013-04-25 00:45:00,44.8,32.9,29.98,SW,228,18.0,21.0,63,0.00,,,0.00,meteohub,2013-04-25 05:45:00,
2013-04-25 00:51:00,44.4,33.1,29.98,SW,225,19.0,22.0,64,0.00,,,0.00,meteohub,2013-04-25 05:51:00,
2013-04-25 00:56:00,44.4,33.4,29.98,SW,235,16.0,26.0,65,0.00,,,0.00,meteohub,2013-04-25 05:56:00,
2013-04-25 01:01:00,44.1,33.8,29.98,SW,221,16.0,26.0,67,0.00,,,0.00,meteohub,2013-04-25 06:01:00,
2013-04-25 01:06:00,43.9,34.0,29.98,SW,223,14.0,26.0,68,0.00,,,0.00,meteohub,2013-04-25 06:06:00,
2013-04-25 01:12:00,43.7,34.2,29.98,SW,224,13.0,23.0,69,0.00,,,0.00,meteohub,2013-04-25 06:12:00,
2013-04-25 01:17:00,43.5,34.7,29.97,SW,225,19.0,23.0,71,0.00,,,0.00,meteohub,2013-04-25 06:17:00,
2013-04-25 01:22:00,43.3,34.9,29.97,WSW,237,14.0,24.0,72,0.00,,,0.00,meteohub,2013-04-25 06:22:00,
2013-04-25 01:27:00,43.0,34.9,29.97,SW,236,16.0,24.0,73,0.00,,,0.00,meteohub,2013-04-25 06:27:00,
2013-04-25 01:32:00,42.6,34.9,29.97,SW,229,14.0,24.0,74,0.00,,,0.00,meteohub,2013-04-25 06:32:00,
2013-04-25 01:37:00,42.4,35.1,29.97,SW,222,11.0,22.0,75,0.00,,,0.00,meteohub,2013-04-25 06:37:00,
2013-04-25 01:42:00,42.4,35.4,29.97,SW,217,18.0,22.0,76,0.00,,,0.00,meteohub,2013-04-25 06:42:00,
2013-04-25 01:47:00,42.4,35.8,29.97,SW,224,11.0,22.0,77,0.00,,,0.00,meteohub,2013-04-25 06:47:00,
2013-04-25 01:52:00,42.3,35.6,29.97,SW,225,9.0,21.0,77,0.00,,,0.00,meteohub,2013-04-25 06:52:00,
2013-04-25 01:57:00,42.3,35.6,29.97,North,0,16.0,21.0,77,0.00,,,0.00,meteohub,2013-04-25 06:57:00,
2013-04-25 02:02:00,41.9,35.2,29.97,SW,224,13.0,20.0,77,0.00,,,0.00,meteohub,2013-04-25 07:02:00,
2013-04-25 02:07:00,41.7,35.4,29.97,SW,222,12.0,20.0,78,0.00,,,0.00,meteohub,2013-04-25 07:07:00,
2013-04-25 02:12:00,41.7,35.4,29.97,SW,234,11.0,20.0,78,0.00,,,0.00,meteohub,2013-04-25 07:12:00,
2013-04-25 02:17:00,41.7,35.8,29.96,SW,217,15.0,20.0,79,0.00,,,0.00,meteohub,2013-04-25 07:17:00,
2013-04-25 02:22:00,41.7,35.4,29.96,SW,214,14.0,20.0,78,0.00,,,0.00,meteohub,2013-04-25 07:22:00,
2013-04-25 02:27:00,41.5,35.6,29.96,SW,222,12.0,18.0,79,0.00,,,0.00,meteohub,2013-04-25 07:27:00,
2013-04-25 02:32:00,41.7,36.0,29.96,SSW,202,13.0,19.0,80,0.00,,,0.00,meteohub,2013-04-25 07:32:00,
2013-04-25 02:37:00,41.9,35.8,29.96,SW,225,14.0,19.0,79,0.00,,,0.00,meteohub,2013-04-25 07:37:00,
2013-04-25 02:42:00,42.1,36.0,29.96,SW,224,12.0,20.0,79,0.00,,,0.00,meteohub,2013-04-25 07:42:00,
2013-04-25 02:47:00,42.1,36.0,29.96,SW,236,15.0,20.0,79,0.00,,,0.00,meteohub,2013-04-25 07:47:00,
2013-04-25 02:52:00,42.1,36.3,29.96,SW,219,10.0,22.0,80,0.00,,,0.00,meteohub,2013-04-25 07:52:00,
2013-04-25 02:57:00,42.1,36.3,29.97,SW,227,14.0,22.0,80,0.00,,,0.00,meteohub,2013-04-25 07:57:00,
2013-04-25 03:02:00,42.1,36.7,29.97,SW,231,12.0,22.0,81,0.00,,,0.00,meteohub,2013-04-25 08:02:00,
2013-04-25 03:07:00,41.7,36.7,29.96,SW,234,11.0,20.0,82,0.00,,,0.00,meteohub,2013-04-25 08:07:00,
2013-04-25 03:12:00,41.5,36.7,29.96,WSW,237,13.0,20.0,83,0.00,,,0.00,meteohub,2013-04-25 08:12:00,
2013-04-25 03:17:00,41.5,36.5,29.96,SW,234,10.0,18.0,82,0.00,,,0.00,meteohub,2013-04-25 08:17:00,
2013-04-25 03:22:00,41.2,36.1,29.96,WSW,246,11.0,16.0,82,0.00,,,0.00,meteohub,2013-04-25 08:22:00,
2013-04-25 03:27:00,41.2,36.1,29.96,WSW,251,11.0,16.0,82,0.00,,,0.00,meteohub,2013-04-25 08:27:00,
2013-04-25 03:32:00,40.6,35.6,29.97,WSW,257,10.0,19.0,82,0.00,,,0.00,meteohub,2013-04-25 08:32:00,
2013-04-25 03:37:00,40.8,35.8,29.97,WSW,250,14.0,19.0,82,0.00,,,0.00,meteohub,2013-04-25 08:37:00,
2013-04-25 03:42:00,40.8,35.8,29.97,WNW,296,8.0,19.0,82,0.00,,,0.00,meteohub,2013-04-25 08:42:00,
2013-04-25 03:47:00,40.8,35.4,29.97,WSW,241,10.0,17.0,81,0.00,,,0.00,meteohub,2013-04-25 08:47:00,
2013-04-25 03:52:00,40.6,35.6,29.98,WSW,254,6.0,17.0,82,0.00,,,0.00,meteohub,2013-04-25 08:52:00,
2013-04-25 03:57:00,40.5,35.4,29.98,WSW,250,12.0,17.0,82,0.00,,,0.00,meteohub,2013-04-25 08:57:00,
2013-04-25 04:02:00,40.3,35.2,29.99,West,269,5.0,17.0,82,0.00,,,0.00,meteohub,2013-04-25 09:02:00,
2013-04-25 04:07:00,39.4,34.0,29.99,West,271,3.0,16.0,81,0.00,,,0.00,meteohub,2013-04-25 09:07:00,
2013-04-25 04:12:00,38.5,33.8,29.99,West,272,5.0,13.0,83,0.00,,,0.00,meteohub,2013-04-25 09:12:00,
2013-04-25 04:17:00,37.8,33.6,30.00,WNW,286,0.0,12.0,85,0.00,,,0.00,meteohub,2013-04-25 09:17:00,
2013-04-25 04:22:00,37.2,33.8,30.00,WNW,297,1.0,11.0,87,0.00,,,0.00,meteohub,2013-04-25 09:22:00,
2013-04-25 04:27:00,37.0,33.6,30.00,West,265,2.0,9.0,87,0.00,,,0.00,meteohub,2013-04-25 09:27:00,
2013-04-25 04:32:00,36.9,33.6,30.00,WSW,257,3.0,7.0,88,0.00,,,0.00,meteohub,2013-04-25 09:32:00,
2013-04-25 04:37:00,36.7,33.4,30.00,West,266,2.0,8.0,88,0.00,,,0.00,meteohub,2013-04-25 09:37:00,
2013-04-25 04:42:00,36.7,33.8,30.00,WSW,252,3.0,11.0,89,0.00,,,0.00,meteohub,2013-04-25 09:42:00,
2013-04-25 04:47:00,36.5,33.6,30.01,West,276,2.0,11.0,89,0.00,,,0.00,meteohub,2013-04-25 09:47:00,
2013-04-25 04:52:00,36.3,33.4,30.01,West,267,6.0,11.0,89,0.00,,,0.00,meteohub,2013-04-25 09:52:00,
2013-04-25 04:57:00,36.3,33.4,30.01,West,269,5.0,8.0,89,0.00,,,0.00,meteohub,2013-04-25 09:57:00,
2013-04-25 05:02:00,36.7,34.0,30.01,WSW,252,3.0,9.0,90,0.00,,,0.00,meteohub,2013-04-25 10:02:00,
2013-04-25 05:07:00,36.7,34.0,30.01,WSW,249,10.0,10.0,90,0.00,,,0.00,meteohub,2013-04-25 10:07:00,
2013-04-25 05:12:00,36.9,34.2,30.01,WSW,254,5.0,10.0,90,0.00,,,0.00,meteohub,2013-04-25 10:12:00,
2013-04-25 05:17:00,36.9,34.2,30.01,West,263,8.0,13.0,90,0.00,,,0.00,meteohub,2013-04-25 10:17:00,
2013-04-25 05:22:00,37.0,34.3,30.01,West,260,6.0,13.0,90,0.00,,,0.00,meteohub,2013-04-25 10:22:00,
2013-04-25 05:27:00,37.0,34.2,30.02,West,265,6.0,13.0,89,0.00,,,0.00,meteohub,2013-04-25 10:27:00,
2013-04-25 05:32:00,37.0,34.2,30.02,WSW,242,9.0,13.0,89,0.00,,,0.00,meteohub,2013-04-25 10:32:00,
2013-04-25 05:37:00,37.0,34.2,30.02,WSW,250,9.0,14.0,89,0.00,,,0.00,meteohub,2013-04-25 10:37:00,
2013-04-25 05:42:00,37.0,33.8,30.03,West,270,12.0,14.0,88,0.00,,,0.00,meteohub,2013-04-25 10:42:00,
2013-04-25 05:47:00,37.0,33.8,30.03,WSW,246,3.0,14.0,88,0.00,,,0.00,meteohub,2013-04-25 10:47:00,
2013-04-25 05:52:00,37.0,33.8,30.03,West,268,9.0,14.0,88,0.00,,,0.00,meteohub,2013-04-25 10:52:00,
2013-04-25 05:57:00,36.9,33.6,30.03,West,268,10.0,12.0,88,0.00,,,0.00,meteohub,2013-04-25 10:57:00,
2013-04-25 06:02:00,36.9,33.4,30.03,West,270,6.0,11.0,87,0.00,,,0.00,meteohub,2013-04-25 11:02:00,
2013-04-25 06:07:00,36.7,33.3,30.04,WSW,258,3.0,11.0,87,0.00,,,0.00,meteohub,2013-04-25 11:07:00,
2013-04-25 06:12:00,36.3,32.9,30.04,West,273,3.0,10.0,87,0.00,,,0.00,meteohub,2013-04-25 11:12:00,
2013-04-25 06:17:00,36.1,32.7,30.05,West,259,1.0,8.0,87,0.00,,,0.00,meteohub,2013-04-25 11:17:00,
2013-04-25 06:22:00,36.1,32.9,30.05,West,259,2.0,6.0,88,0.00,,,0.00,meteohub,2013-04-25 11:22:00,
2013-04-25 06:27:00,36.1,32.9,30.05,West,259,2.0,6.0,88,0.00,,,0.00,meteohub,2013-04-25 11:27:00,
2013-04-25 06:32:00,36.0,32.7,30.05,West,259,1.0,4.0,88,0.00,,,0.00,meteohub,2013-04-25 11:32:00,
2013-04-25 06:37:00,36.0,32.7,30.05,West,259,1.0,4.0,88,0.00,,,0.00,meteohub,2013-04-25 11:37:00,
2013-04-25 06:42:00,36.0,32.7,30.06,West,259,3.0,4.0,88,0.00,,,0.00,meteohub,2013-04-25 11:42:00,
2013-04-25 06:47:00,36.0,32.7,30.06,West,259,1.0,4.0,88,0.00,,,0.00,meteohub,2013-04-25 11:47:00,
2013-04-25 06:52:00,36.1,33.3,30.06,WSW,258,1.0,3.0,89,0.00,,,0.00,meteohub,2013-04-25 11:52:00,
2013-04-25 06:58:00,36.3,33.4,30.06,WSW,258,1.0,3.0,89,0.00,,,0.00,meteohub,2013-04-25 11:58:00,
2013-04-25 07:03:00,36.7,33.8,30.07,WSW,258,0.0,3.0,89,0.00,,,0.00,meteohub,2013-04-25 12:03:00,
2013-04-25 07:08:00,36.9,33.6,30.07,WSW,258,4.0,4.0,88,0.00,,,0.00,meteohub,2013-04-25 12:08:00,
2013-04-25 07:13:00,37.0,33.8,30.07,WSW,239,0.0,4.0,88,0.00,,,0.00,meteohub,2013-04-25 12:13:00,
2013-04-25 07:18:00,37.2,34.0,30.07,WSW,254,3.0,6.0,88,0.00,,,0.00,meteohub,2013-04-25 12:18:00,
2013-04-25 07:23:00,37.4,34.2,30.07,West,272,1.0,6.0,88,0.00,,,0.00,meteohub,2013-04-25 12:23:00,
2013-04-25 07:29:00,37.6,34.3,30.08,WSW,256,4.0,6.0,88,0.00,,,0.00,meteohub,2013-04-25 12:29:00,
2013-04-25 07:34:00,37.8,34.5,30.08,WSW,248,4.0,10.0,88,0.00,,,0.00,meteohub,2013-04-25 12:34:00,
2013-04-25 07:39:00,37.9,34.3,30.08,West,277,3.0,10.0,87,0.00,,,0.00,meteohub,2013-04-25 12:39:00,
2013-04-25 07:44:00,38.3,34.5,30.09,West,266,8.0,8.0,86,0.00,,,0.00,meteohub,2013-04-25 12:44:00,
2013-04-25 07:49:00,38.5,34.3,30.09,West,259,3.0,10.0,85,0.00,,,0.00,meteohub,2013-04-25 12:49:00,
2013-04-25 07:54:00,38.8,34.3,30.09,West,273,5.0,13.0,84,0.00,,,0.00,meteohub,2013-04-25 12:54:00,
2013-04-25 08:00:00,38.8,34.3,30.09,WSW,249,8.0,13.0,84,0.00,,,0.00,meteohub,2013-04-25 13:00:00,
2013-04-25 08:05:00,39.0,34.5,30.09,West,264,9.0,15.0,84,0.00,,,0.00,meteohub,2013-04-25 13:05:00,
2013-04-25 08:10:00,39.0,34.5,30.10,West,271,8.0,15.0,84,0.00,,,0.00,meteohub,2013-04-25 13:10:00,
2013-04-25 08:15:00,39.0,34.0,30.10,WNW,286,12.0,15.0,82,0.00,,,0.00,meteohub,2013-04-25 13:15:00,
2013-04-25 08:20:00,39.0,33.6,30.11,West,273,16.0,17.0,81,0.00,,,0.00,meteohub,2013-04-25 13:20:00,
2013-04-25 08:25:00,39.4,34.0,30.11,West,264,5.0,18.0,81,0.00,,,0.00,meteohub,2013-04-25 13:25:00,
2013-04-25 08:31:00,39.7,34.3,30.11,NW,310,7.0,18.0,81,0.00,,,0.00,meteohub,2013-04-25 13:31:00,
2013-04-25 08:36:00,39.9,34.0,30.11,West,262,8.0,16.0,79,0.00,,,0.00,meteohub,2013-04-25 13:36:00,
2013-04-25 08:41:00,39.7,33.4,30.12,WNW,284,10.0,15.0,78,0.00,,,0.00,meteohub,2013-04-25 13:41:00,
2013-04-25 08:46:00,39.7,33.4,30.12,West,260,5.0,18.0,78,0.00,,,0.00,meteohub,2013-04-25 13:46:00,
2013-04-25 08:51:00,39.7,33.8,30.12,WNW,290,7.0,18.0,79,0.00,,,0.00,meteohub,2013-04-25 13:51:00,
2013-04-25 08:56:00,39.9,34.0,30.12,WSW,252,8.0,16.0,79,0.00,,,0.00,meteohub,2013-04-25 13:56:00,
2013-04-25 09:02:00,40.3,34.3,30.12,West,275,14.0,16.0,79,0.00,,,0.00,meteohub,2013-04-25 14:02:00,
2013-04-25 09:07:00,39.9,34.0,30.12,West,275,5.0,16.0,79,0.00,,,0.00,meteohub,2013-04-25 14:07:00,
2013-04-25 09:12:00,40.8,34.9,30.13,WNW,288,7.0,16.0,79,0.00,,,0.00,meteohub,2013-04-25 14:12:00,
2013-04-25 09:17:00,40.8,34.5,30.13,WNW,298,4.0,16.0,78,0.00,,,0.00,meteohub,2013-04-25 14:17:00,
2013-04-25 09:22:00,41.2,34.5,30.13,WNW,290,4.0,14.0,77,0.00,,,0.00,meteohub,2013-04-25 14:22:00,
2013-04-25 09:27:00,42.1,35.1,30.13,NW,315,2.0,14.0,76,0.00,,,0.00,meteohub,2013-04-25 14:27:00,
2013-04-25 09:32:00,41.2,33.4,30.14,West,273,5.0,16.0,74,0.00,,,0.00,meteohub,2013-04-25 14:32:00,
2013-04-25 09:37:00,41.0,33.4,30.14,West,277,8.0,16.0,74,0.00,,,0.00,meteohub,2013-04-25 14:37:00,
2013-04-25 09:42:00,41.5,33.8,30.14,WSW,248,9.0,16.0,74,0.00,,,0.00,meteohub,2013-04-25 14:42:00,
2013-04-25 09:47:00,41.4,34.3,30.14,West,268,12.0,16.0,76,0.00,,,0.00,meteohub,2013-04-25 14:47:00,
2013-04-25 09:52:00,41.7,34.7,30.14,SSW,213,10.0,16.0,76,0.00,,,0.00,meteohub,2013-04-25 14:52:00,
2013-04-25 09:57:00,42.3,34.5,30.15,West,269,6.0,16.0,74,0.00,,,0.00,meteohub,2013-04-25 14:57:00,
2013-04-25 10:02:00,42.1,33.8,30.15,West,279,10.0,16.0,72,0.00,,,0.00,meteohub,2013-04-25 15:02:00,
2013-04-25 10:07:00,41.9,34.2,30.15,NNW,335,7.0,14.0,74,0.00,,,0.00,meteohub,2013-04-25 15:07:00,
2013-04-25 10:12:00,43.2,34.3,30.15,West,267,10.0,15.0,71,0.00,,,0.00,meteohub,2013-04-25 15:12:00,
2013-04-25 10:17:00,42.6,32.7,30.16,West,273,7.0,15.0,68,0.00,,,0.00,meteohub,2013-04-25 15:17:00,
2013-04-25 10:22:00,43.2,34.0,30.16,West,259,4.0,15.0,70,0.00,,,0.00,meteohub,2013-04-25 15:22:00,
2013-04-25 10:27:00,43.0,33.8,30.16,WNW,290,2.0,15.0,70,0.00,,,0.00,meteohub,2013-04-25 15:27:00,
2013-04-25 10:32:00,43.0,33.8,30.17,West,261,5.0,15.0,70,0.00,,,0.00,meteohub,2013-04-25 15:32:00,
2013-04-25 10:37:00,43.7,33.8,30.17,West,281,6.0,15.0,68,0.00,,,0.00,meteohub,2013-04-25 15:37:00,
2013-04-25 10:42:00,44.2,34.3,30.17,WSW,255,3.0,15.0,68,0.00,,,0.00,meteohub,2013-04-25 15:42:00,
2013-04-25 10:47:00,43.9,34.0,30.17,WNW,301,5.0,14.0,68,0.00,,,0.00,meteohub,2013-04-25 15:47:00,
2013-04-25 10:52:00,44.2,34.0,30.17,North,5,7.0,14.0,67,0.00,,,0.00,meteohub,2013-04-25 15:52:00,
2013-04-25 10:57:00,44.6,34.7,30.17,NW,307,2.0,14.0,68,0.00,,,0.00,meteohub,2013-04-25 15:57:00,
2013-04-25 11:02:00,45.1,34.2,30.17,NW,311,4.0,10.0,65,0.00,,,0.00,meteohub,2013-04-25 16:02:00,
2013-04-25 11:07:00,43.5,33.3,30.17,WSW,257,8.0,17.0,67,0.00,,,0.00,meteohub,2013-04-25 16:07:00,
2013-04-25 11:12:00,43.7,33.8,30.17,WSW,243,9.0,17.0,68,0.00,,,0.00,meteohub,2013-04-25 16:12:00,
2013-04-25 11:17:00,43.9,34.7,30.18,WSW,254,4.0,17.0,70,0.00,,,0.00,meteohub,2013-04-25 16:17:00,
2013-04-25 11:22:00,45.1,34.9,30.18,West,271,7.0,14.0,67,0.00,,,0.00,meteohub,2013-04-25 16:22:00,
2013-04-25 11:27:00,44.8,32.9,30.17,West,261,12.0,15.0,63,0.00,,,0.00,meteohub,2013-04-25 16:27:00,
2013-04-25 11:32:00,45.0,34.0,30.18,NNW,337,4.0,20.0,65,0.00,,,0.00,meteohub,2013-04-25 16:32:00,
2013-04-25 11:37:00,45.7,34.2,30.18,NW,321,2.0,20.0,64,0.00,,,0.00,meteohub,2013-04-25 16:37:00,
2013-04-25 11:42:00,45.1,33.3,30.18,West,273,7.0,20.0,63,0.00,,,0.00,meteohub,2013-04-25 16:42:00,
2013-04-25 11:47:00,44.2,32.9,30.18,West,263,6.0,13.0,64,0.00,,,0.00,meteohub,2013-04-25 16:47:00,
2013-04-25 11:52:00,44.6,34.0,30.18,WNW,287,7.0,14.0,66,0.00,,,0.00,meteohub,2013-04-25 16:52:00,
2013-04-25 11:57:00,45.3,34.3,30.18,NW,324,7.0,14.0,65,0.00,,,0.00,meteohub,2013-04-25 16:57:00,
2013-04-25 12:02:00,45.7,33.1,30.19,West,267,8.0,13.0,61,0.00,,,0.00,meteohub,2013-04-25 17:02:00,
2013-04-25 12:07:00,45.3,31.8,30.19,West,275,7.0,17.0,59,0.00,,,0.00,meteohub,2013-04-25 17:07:00,
2013-04-25 12:12:00,46.0,32.9,30.19,West,280,5.0,17.0,60,0.00,,,0.00,meteohub,2013-04-25 17:12:00,
2013-04-25 12:17:00,45.9,32.7,30.19,WNW,299,4.0,17.0,60,0.00,,,0.00,meteohub,2013-04-25 17:17:00,
2013-04-25 12:22:00,46.0,32.9,30.19,NW,304,8.0,10.0,60,0.00,,,0.00,meteohub,2013-04-25 17:22:00,
2013-04-25 12:27:00,46.2,31.5,30.19,West,265,8.0,10.0,56,0.00,,,0.00,meteohub,2013-04-25 17:27:00,
2013-04-25 12:32:00,46.2,33.1,30.19,West,278,11.0,13.0,60,0.00,,,0.00,meteohub,2013-04-25 17:32:00,
2013-04-25 12:37:00,46.2,33.4,30.19,West,279,6.0,14.0,61,0.00,,,0.00,meteohub,2013-04-25 17:37:00,
2013-04-25 12:42:00,47.1,34.0,30.19,WSW,253,13.0,14.0,60,0.00,,,0.00,meteohub,2013-04-25 17:42:00,
2013-04-25 12:47:00,46.8,31.8,30.19,West,259,10.0,14.0,56,0.00,,,0.00,meteohub,2013-04-25 17:47:00,
2013-04-25 12:52:00,46.6,33.1,30.20,West,269,6.0,20.0,59,0.00,,,0.00,meteohub,2013-04-25 17:52:00,
2013-04-25 12:57:00,45.7,32.5,30.19,West,259,10.0,20.0,60,0.00,,,0.00,meteohub,2013-04-25 17:57:00,
2013-04-25 13:02:00,45.7,32.5,30.19,WNW,282,11.0,20.0,60,0.00,,,0.00,meteohub,2013-04-25 18:02:00,
2013-04-25 13:07:00,46.6,34.7,30.19,West,267,11.0,17.0,63,0.00,,,0.00,meteohub,2013-04-25 18:07:00,
2013-04-25 13:12:00,47.7,34.0,30.19,West,259,8.0,17.0,59,0.00,,,0.00,meteohub,2013-04-25 18:12:00,
2013-04-25 13:17:00,48.2,34.2,30.20,NW,315,5.0,15.0,58,0.00,,,0.00,meteohub,2013-04-25 18:17:00,
2013-04-25 13:22:00,47.1,31.3,30.20,West,267,14.0,18.0,54,0.00,,,0.00,meteohub,2013-04-25 18:22:00,
2013-04-25 13:27:00,46.6,33.1,30.21,West,275,3.0,18.0,59,0.00,,,0.00,meteohub,2013-04-25 18:27:00,
2013-04-25 13:32:00,47.8,33.3,30.21,West,261,4.0,17.0,57,0.00,,,0.00,meteohub,2013-04-25 18:32:00,
2013-04-25 13:37:00,48.9,33.4,30.21,WSW,238,12.0,17.0,55,0.00,,,0.00,meteohub,2013-04-25 18:37:00,
2013-04-25 13:42:00,47.8,30.6,30.21,WSW,250,6.0,16.0,51,0.00,,,0.00,meteohub,2013-04-25 18:42:00,
2013-04-25 13:47:00,47.3,30.6,30.21,West,275,5.0,15.0,52,0.00,,,0.00,meteohub,2013-04-25 18:47:00,
2013-04-25 13:52:00,47.8,31.5,30.21,West,274,7.0,16.0,53,0.00,,,0.00,meteohub,2013-04-25 18:52:00,
2013-04-25 13:57:00,47.8,32.0,30.21,WSW,257,8.0,16.0,54,0.00,,,0.00,meteohub,2013-04-25 18:57:00,
2013-04-25 14:02:00,48.6,33.1,30.22,West,273,7.0,16.0,55,0.00,,,0.00,meteohub,2013-04-25 19:02:00,
2013-04-25 14:07:00,49.3,32.9,30.22,West,259,9.0,16.0,53,0.00,,,0.00,meteohub,2013-04-25 19:07:00,
2013-04-25 14:12:00,48.6,32.7,30.22,WSW,254,7.0,16.0,54,0.00,,,0.00,meteohub,2013-04-25 19:12:00,
2013-04-25 14:17:00,48.0,31.6,30.22,WSW,253,9.0,19.0,53,0.00,,,0.00,meteohub,2013-04-25 19:17:00,
2013-04-25 14:22:00,48.9,32.5,30.22,West,263,8.0,19.0,53,0.00,,,0.00,meteohub,2013-04-25 19:22:00,
2013-04-25 14:27:00,48.9,32.0,30.22,WSW,240,8.0,15.0,52,0.00,,,0.00,meteohub,2013-04-25 19:27:00,
2013-04-25 14:32:00,49.5,32.0,30.22,WSW,238,9.0,15.0,51,0.00,,,0.00,meteohub,2013-04-25 19:32:00,
2013-04-25 14:37:00,48.9,32.0,30.22,WNW,285,12.0,18.0,52,0.00,,,0.00,meteohub,2013-04-25 19:37:00,
2013-04-25 14:42:00,49.1,33.3,30.22,West,267,10.0,18.0,54,0.00,,,0.00,meteohub,2013-04-25 19:42:00,
2013-04-25 14:47:00,49.6,34.5,30.22,West,261,5.0,18.0,56,0.00,,,0.00,meteohub,2013-04-25 19:47:00,
2013-04-25 14:52:00,49.5,30.6,30.22,WSW,256,8.0,15.0,48,0.00,,,0.00,meteohub,2013-04-25 19:52:00,
2013-04-25 14:57:00,48.6,30.7,30.22,West,275,5.0,14.0,50,0.00,,,0.00,meteohub,2013-04-25 19:57:00,
2013-04-25 15:02:00,49.3,32.4,30.22,West,275,7.0,16.0,52,0.00,,,0.00,meteohub,2013-04-25 20:02:00,
2013-04-25 15:07:00,49.3,30.4,30.22,SW,223,6.0,19.0,48,0.00,,,0.00,meteohub,2013-04-25 20:07:00,
2013-04-25 15:12:00,48.7,29.8,30.22,WNW,283,5.0,19.0,48,0.00,,,0.00,meteohub,2013-04-25 20:12:00,
2013-04-25 15:17:00,48.9,31.6,30.22,WSW,252,5.0,19.0,51,0.00,,,0.00,meteohub,2013-04-25 20:17:00,
2013-04-25 15:22:00,48.7,30.4,30.22,WSW,246,6.0,17.0,49,0.00,,,0.00,meteohub,2013-04-25 20:22:00,
2013-04-25 15:27:00,48.7,29.8,30.22,WSW,250,9.0,13.0,48,0.00,,,0.00,meteohub,2013-04-25 20:27:00,
2013-04-25 15:32:00,48.7,29.5,30.22,WSW,248,7.0,12.0,47,0.00,,,0.00,meteohub,2013-04-25 20:32:00,
2013-04-25 15:37:00,49.6,29.7,30.22,WSW,252,8.0,12.0,46,0.00,,,0.00,meteohub,2013-04-25 20:37:00,
2013-04-25 15:42:00,48.6,29.3,30.22,NW,306,5.0,15.0,47,0.00,,,0.00,meteohub,2013-04-25 20:42:00,
2013-04-25 15:47:00,50.4,32.0,30.22,West,273,11.0,15.0,49,0.00,,,0.00,meteohub,2013-04-25 20:47:00,
2013-04-25 15:52:00,49.8,30.4,30.22,WSW,256,8.0,16.0,47,0.00,,,0.00,meteohub,2013-04-25 20:52:00,
2013-04-25 15:57:00,48.7,29.5,30.22,West,259,4.0,16.0,47,0.00,,,0.00,meteohub,2013-04-25 20:57:00,
2013-04-25 16:02:00,50.2,31.3,30.22,SSW,201,7.0,16.0,48,0.00,,,0.00,meteohub,2013-04-25 21:02:00,
2013-04-25 16:07:00,49.6,29.7,30.22,WSW,244,12.0,13.0,46,0.00,,,0.00,meteohub,2013-04-25 21:07:00,
2013-04-25 16:12:00,49.8,28.8,30.22,West,269,9.0,14.0,44,0.00,,,0.00,meteohub,2013-04-25 21:12:00,
2013-04-25 16:17:00,50.5,32.0,30.22,West,265,7.0,14.0,49,0.00,,,0.00,meteohub,2013-04-25 21:17:00,
2013-04-25 16:22:00,49.6,30.2,30.22,West,278,8.0,15.0,47,0.00,,,0.00,meteohub,2013-04-25 21:22:00,
2013-04-25 16:27:00,49.8,30.4,30.22,WSW,253,9.0,15.0,47,0.00,,,0.00,meteohub,2013-04-25 21:27:00,
2013-04-25 16:32:00,49.6,30.7,30.22,SW,228,6.0,13.0,48,0.00,,,0.00,meteohub,2013-04-25 21:32:00,
2013-04-25 16:37:00,49.8,30.9,30.22,WSW,252,2.0,12.0,48,0.00,,,0.00,meteohub,2013-04-25 21:37:00,
2013-04-25 16:42:00,50.2,30.2,30.22,WSW,248,8.0,15.0,46,0.00,,,0.00,meteohub,2013-04-25 21:42:00,
2013-04-25 16:47:00,49.3,29.8,30.22,WSW,257,1.0,15.0,47,0.00,,,0.00,meteohub,2013-04-25 21:47:00,
2013-04-25 16:52:00,49.8,29.8,30.23,West,267,3.0,15.0,46,0.00,,,0.00,meteohub,2013-04-25 21:52:00,
2013-04-25 16:57:00,50.9,30.9,30.23,SW,235,8.0,15.0,46,0.00,,,0.00,meteohub,2013-04-25 21:57:00,
2013-04-25 17:02:00,50.4,30.9,30.23,WSW,237,12.0,15.0,47,0.00,,,0.00,meteohub,2013-04-25 22:02:00,
2013-04-25 17:07:00,50.0,31.6,30.23,SSW,205,10.0,15.0,49,0.00,,,0.00,meteohub,2013-04-25 22:07:00,
2013-04-25 17:12:00,50.5,31.1,30.23,WSW,252,9.0,15.0,47,0.00,,,0.00,meteohub,2013-04-25 22:12:00,
2013-04-25 17:17:00,50.0,32.2,30.23,WSW,250,6.0,14.0,50,0.00,,,0.00,meteohub,2013-04-25 22:17:00,
2013-04-25 17:22:00,48.7,30.9,30.23,WSW,241,5.0,14.0,50,0.00,,,0.00,meteohub,2013-04-25 22:22:00,
2013-04-25 17:27:00,48.9,31.1,30.23,WSW,254,9.0,14.0,50,0.00,,,0.00,meteohub,2013-04-25 22:27:00,
2013-04-25 17:32:00,49.3,30.4,30.23,SW,229,9.0,12.0,48,0.00,,,0.00,meteohub,2013-04-25 22:32:00,
2013-04-25 17:37:00,49.5,31.6,30.23,WSW,251,12.0,18.0,50,0.00,,,0.00,meteohub,2013-04-25 22:37:00,
2013-04-25 17:42:00,48.9,30.6,30.23,West,264,8.0,18.0,49,0.00,,,0.00,meteohub,2013-04-25 22:42:00,
2013-04-25 17:47:00,48.7,30.4,30.23,SW,227,13.0,17.0,49,0.00,,,0.00,meteohub,2013-04-25 22:47:00,
2013-04-25 17:52:00,48.6,30.7,30.23,SW,220,9.0,16.0,50,0.00,,,0.00,meteohub,2013-04-25 22:52:00,
2013-04-25 17:57:00,48.9,31.1,30.24,SW,216,13.0,16.0,50,0.00,,,0.00,meteohub,2013-04-25 22:57:00,
2013-04-25 18:02:00,49.3,30.9,30.24,SSW,199,11.0,16.0,49,0.00,,,0.00,meteohub,2013-04-25 23:02:00,
2013-04-25 18:07:00,49.1,30.2,30.24,WSW,243,11.0,16.0,48,0.00,,,0.00,meteohub,2013-04-25 23:07:00,
2013-04-25 18:12:00,48.0,29.8,30.24,SW,234,7.0,16.0,49,0.00,,,0.00,meteohub,2013-04-25 23:12:00,
2013-04-25 18:17:00,48.6,31.3,30.24,WSW,244,6.0,16.0,51,0.00,,,0.00,meteohub,2013-04-25 23:17:00,
2013-04-25 18:22:00,48.9,31.1,30.24,SSW,211,7.0,13.0,50,0.00,,,0.00,meteohub,2013-04-25 23:22:00,
2013-04-25 18:27:00,48.7,30.9,30.24,WSW,238,9.0,12.0,50,0.00,,,0.00,meteohub,2013-04-25 23:27:00,
2013-04-25 18:32:00,48.6,30.2,30.24,SW,230,15.0,15.0,49,0.00,,,0.00,meteohub,2013-04-25 23:32:00,
2013-04-25 18:37:00,48.2,29.5,30.24,WSW,248,7.0,16.0,48,0.00,,,0.00,meteohub,2013-04-25 23:37:00,
2013-04-25 18:42:00,48.2,28.9,30.24,WSW,242,9.0,16.0,47,0.00,,,0.00,meteohub,2013-04-25 23:42:00,
2013-04-25 18:47:00,48.0,29.3,30.24,WSW,242,6.0,16.0,48,0.00,,,0.00,meteohub,2013-04-25 23:47:00,
2013-04-25 18:52:00,47.8,29.7,30.24,WSW,240,9.0,12.0,49,0.00,,,0.00,meteohub,2013-04-25 23:52:00,
2013-04-25 18:57:00,47.5,29.8,30.24,SW,236,11.0,12.0,50,0.00,,,0.00,meteohub,2013-04-25 23:57:00,
2013-04-25 19:02:00,47.3,29.1,30.24,WSW,239,8.0,13.0,49,0.00,,,0.00,meteohub,2013-04-26 00:02:00,
2013-04-25 19:07:00,46.9,28.8,30.24,SW,225,7.0,13.0,49,0.00,,,0.00,meteohub,2013-04-26 00:07:00,
2013-04-25 19:12:00,46.8,29.7,30.25,SW,234,6.0,13.0,51,0.00,,,0.00,meteohub,2013-04-26 00:12:00,
2013-04-25 19:17:00,46.2,29.5,30.24,SW,231,6.0,13.0,52,0.00,,,0.00,meteohub,2013-04-26 00:17:00,
2013-04-25 19:22:00,46.0,29.5,30.24,SW,232,3.0,10.0,52,0.00,,,0.00,meteohub,2013-04-26 00:22:00,
2013-04-25 19:27:00,45.9,29.3,30.24,WSW,246,3.0,8.0,52,0.00,,,0.00,meteohub,2013-04-26 00:27:00,
2013-04-25 19:32:00,45.3,29.1,30.24,WSW,245,3.0,7.0,53,0.00,,,0.00,meteohub,2013-04-26 00:32:00,
2013-04-25 19:37:00,44.6,29.8,30.24,WSW,245,2.0,6.0,56,0.00,,,0.00,meteohub,2013-04-26 00:37:00,
2013-04-25 19:42:00,43.9,29.7,30.24,WSW,245,2.0,6.0,57,0.00,,,0.00,meteohub,2013-04-26 00:42:00,
2013-04-25 19:47:00,43.2,29.8,30.24,WSW,245,2.0,4.0,59,0.00,,,0.00,meteohub,2013-04-26 00:47:00,
2013-04-25 19:52:00,42.4,29.5,30.24,WSW,245,1.0,4.0,60,0.00,,,0.00,meteohub,2013-04-26 00:52:00,
2013-04-25 19:57:00,42.3,30.2,30.24,WSW,245,0.0,3.0,62,0.00,,,0.00,meteohub,2013-04-26 00:57:00,
2013-04-25 20:02:00,41.7,29.7,30.25,WSW,245,0.0,3.0,62,0.00,,,0.00,meteohub,2013-04-26 01:02:00,
2013-04-25 20:07:00,41.7,29.7,30.25,WSW,245,0.0,3.0,62,0.00,,,0.00,meteohub,2013-04-26 01:07:00,
2013-04-25 20:12:00,41.5,29.1,30.24,WSW,245,0.0,2.0,61,0.00,,,0.00,meteohub,2013-04-26 01:12:00,
2013-04-25 20:17:00,41.7,29.3,30.25,WSW,245,0.0,1.0,61,0.00,,,0.00,meteohub,2013-04-26 01:17:00,
2013-04-25 20:22:00,41.7,29.3,30.25,WSW,245,0.0,1.0,61,0.00,,,0.00,meteohub,2013-04-26 01:22:00,
2013-04-25 20:27:00,41.9,29.5,30.25,WSW,245,0.0,1.0,61,0.00,,,0.00,meteohub,2013-04-26 01:27:00,
2013-04-25 20:32:00,41.9,29.5,30.25,WSW,245,0.0,0.0,61,0.00,,,0.00,meteohub,2013-04-26 01:32:00,
2013-04-25 20:37:00,42.1,29.1,30.25,WSW,245,0.0,0.0,60,0.00,,,0.00,meteohub,2013-04-26 01:37:00,
2013-04-25 20:42:00,42.3,29.3,30.25,WSW,245,0.0,0.0,60,0.00,,,0.00,meteohub,2013-04-26 01:42:00,
2013-04-25 20:47:00,42.3,29.3,30.25,WSW,245,0.0,0.0,60,0.00,,,0.00,meteohub,2013-04-26 01:47:00,
2013-04-25 20:52:00,42.1,30.0,30.26,WSW,245,0.0,1.0,62,0.00,,,0.00,meteohub,2013-04-26 01:52:00,
2013-04-25 20:57:00,41.7,30.0,30.26,WSW,245,0.0,2.0,63,0.00,,,0.00,meteohub,2013-04-26 01:57:00,
2013-04-25 21:02:00,41.0,30.2,30.26,WSW,245,0.0,2.0,65,0.00,,,0.00,meteohub,2013-04-26 02:02:00,
2013-04-25 21:07:00,40.6,30.2,30.26,WSW,245,0.0,2.0,66,0.00,,,0.00,meteohub,2013-04-26 02:07:00,
2013-04-25 21:12:00,40.5,30.0,30.27,WSW,245,0.0,0.0,66,0.00,,,0.00,meteohub,2013-04-26 02:12:00,
2013-04-25 21:17:00,40.5,30.0,30.27,WSW,245,0.0,0.0,66,0.00,,,0.00,meteohub,2013-04-26 02:17:00,
2013-04-25 21:22:00,40.3,30.2,30.27,WSW,245,0.0,0.0,67,0.00,,,0.00,meteohub,2013-04-26 02:22:00,
2013-04-25 21:27:00,39.9,30.6,30.27,WSW,245,0.0,1.0,69,0.00,,,0.00,meteohub,2013-04-26 02:27:00,
2013-04-25 21:32:00,39.7,30.7,30.27,WSW,245,0.0,1.0,70,0.00,,,0.00,meteohub,2013-04-26 02:32:00,
2013-04-25 21:37:00,39.9,30.9,30.27,WSW,245,1.0,1.0,70,0.00,,,0.00,meteohub,2013-04-26 02:37:00,
2013-04-25 21:42:00,40.1,31.1,30.27,WSW,245,1.0,2.0,70,0.00,,,0.00,meteohub,2013-04-26 02:42:00,
2013-04-25 21:47:00,39.9,30.9,30.28,WSW,245,0.0,2.0,70,0.00,,,0.00,meteohub,2013-04-26 02:47:00,
2013-04-25 21:52:00,39.6,30.6,30.28,WSW,245,0.0,2.0,70,0.00,,,0.00,meteohub,2013-04-26 02:52:00,
2013-04-25 21:57:00,39.6,30.9,30.28,WSW,245,1.0,2.0,71,0.00,,,0.00,meteohub,2013-04-26 02:57:00,
2013-04-25 22:02:00,38.8,30.6,30.28,WSW,245,1.0,2.0,72,0.00,,,0.00,meteohub,2013-04-26 03:02:00,
2013-04-25 22:07:00,39.0,31.8,30.28,WSW,245,1.0,2.0,75,0.00,,,0.00,meteohub,2013-04-26 03:07:00,
2013-04-25 22:12:00,39.6,32.5,30.28,WSW,245,0.0,2.0,76,0.00,,,0.00,meteohub,2013-04-26 03:12:00,
2013-04-25 22:17:00,39.6,32.5,30.29,WSW,245,2.0,2.0,76,0.00,,,0.00,meteohub,2013-04-26 03:17:00,
2013-04-25 22:22:00,39.4,32.5,30.29,WSW,245,2.0,2.0,76,0.00,,,0.00,meteohub,2013-04-26 03:22:00,
2013-04-25 22:27:00,38.8,32.0,30.29,WSW,245,2.0,3.0,76,0.00,,,0.00,meteohub,2013-04-26 03:27:00,
2013-04-25 22:32:00,38.7,31.8,30.29,WSW,245,3.0,3.0,76,0.00,,,0.00,meteohub,2013-04-26 03:32:00,
2013-04-25 22:37:00,38.1,31.3,30.29,WSW,245,2.0,4.0,76,0.00,,,0.00,meteohub,2013-04-26 03:37:00,
2013-04-25 22:42:00,37.8,31.3,30.29,WSW,245,1.0,4.0,77,0.00,,,0.00,meteohub,2013-04-26 03:42:00,
2013-04-25 22:47:00,37.8,31.5,30.29,WSW,245,2.0,4.0,78,0.00,,,0.00,meteohub,2013-04-26 03:47:00,
2013-04-25 22:52:00,37.9,31.5,30.29,WSW,245,2.0,3.0,77,0.00,,,0.00,meteohub,2013-04-26 03:52:00,
2013-04-25 22:57:00,38.3,32.0,30.30,WSW,245,3.0,3.0,78,0.00,,,0.00,meteohub,2013-04-26 03:57:00,
2013-04-25 23:01:00,38.3,31.5,30.30,WSW,245,4.0,4.0,76,0.00,,,0.00,meteohub,2013-04-26 04:01:00,
2013-04-25 23:02:00,38.3,31.5,30.30,WSW,245,3.0,4.0,76,0.00,,,0.00,meteohub,2013-04-26 04:02:00,
2013-04-25 23:07:00,38.5,31.6,30.30,WSW,245,2.0,4.0,76,0.00,,,0.00,meteohub,2013-04-26 04:07:00,
2013-04-25 23:10:00,38.1,30.9,30.30,WSW,245,3.0,4.0,75,0.00,,,0.00,meteohub,2013-04-26 04:10:00,
2013-04-25 23:15:00,38.1,31.3,30.30,WSW,244,2.0,4.0,76,0.00,,,0.00,meteohub,2013-04-26 04:15:00,
2013-04-25 23:20:00,37.9,31.5,30.29,WSW,244,2.0,4.0,77,0.00,,,0.00,meteohub,2013-04-26 04:20:00,
2013-04-25 23:25:00,38.3,31.6,30.29,WSW,244,3.0,4.0,77,0.00,,,0.00,meteohub,2013-04-26 04:25:00,
2013-04-25 23:30:00,38.5,32.2,30.29,SW,229,2.0,4.0,78,0.00,,,0.00,meteohub,2013-04-26 04:30:00,
2013-04-25 23:36:00,38.7,32.4,30.29,SW,221,3.0,5.0,78,0.00,,,0.00,meteohub,2013-04-26 04:36:00,
2013-04-25 23:41:00,37.8,31.5,30.30,SW,221,2.0,5.0,78,0.00,,,0.00,meteohub,2013-04-26 04:41:00,
2013-04-25 23:46:00,37.6,31.3,30.30,SW,221,2.0,5.0,78,0.00,,,0.00,meteohub,2013-04-26 04:46:00,
2013-04-25 23:51:00,37.4,31.5,30.30,SW,221,2.0,4.0,79,0.00,,,0.00,meteohub,2013-04-26 04:51:00,
2013-04-25 23:56:00,37.0,31.1,30.30,SW,221,2.0,4.0,79,0.00,,,0.00,meteohub,2013-04-26 04:56:00,